EW4196 Weather Reports


time (UTC)temp
F
wind
direction
speed
knots
gust
knots
rain 1hr
in
rain 24hr
in
rain mn
in
humidity
%
barometer
mb
20260503200005 86 127 0.0 5.2 0.00 0.00 0.00 31 1013.0
20260503194502 85 131 0.9 4.3 0.00 0.00 0.00 34 1013.3
20260503193111 85 134 0.0 4.3 0.00 0.00 0.00 37 1013.5
20260503191608 85 128 0.9 5.2 0.00 0.00 0.00 36 1013.7
20260503190059 84 135 0.9 4.3 0.00 0.00 0.00 38 1014.0
20260503184606 84 178 0.0 3.5 0.00 0.00 0.00 39 1014.2
20260503183058 83 97 0.0 6.1 0.00 0.00 0.00 42 1014.5
20260503181549 82 127 0.9 5.2 0.00 0.00 0.00 41 1014.7
20260503180044 82 128 0.0 2.6 0.00 0.00 0.00 42 1015.1
20260503174539 81 131 0.0 6.1 0.00 0.00 0.00 43 1015.3
20260503173037 81 134 0.0 7.8 0.00 0.00 0.00 42 1015.7
20260503171534 79 106 0.0 4.3 0.00 0.00 0.00 45 1015.8
20260503081510 46 122 0.0 0.0 0.00 0.00 0.00 87 1018.9
20260503071555 47 122 0.0 0.0 0.00 0.00 0.00 85 1019.3
20260503054550 50 122 0.0 0.0 0.00 0.00 0.00 78 1019.5
20260503053039 51 122 0.0 0.0 0.00 0.00 0.00 77 1019.5
20260503051537 51 122 0.0 0.0 0.00 0.00 0.00 76 1019.4
20260503050037 52 122 0.0 0.0 0.00 0.00 0.00 74 1019.3
20260503044536 52 122 0.0 0.0 0.00 0.00 0.00 70 1019.3
20260503043033 53 122 0.0 0.0 0.00 0.00 0.00 68 1019.3
20260503041533 54 122 0.0 0.0 0.00 0.00 0.00 64 1019.2
20260503040036 55 122 0.0 0.0 0.00 0.00 0.00 61 1019.2
20260503034536 56 122 0.0 0.0 0.00 0.00 0.00 61 1019.3
20260503033031 56 122 0.0 0.0 0.00 0.00 0.00 59 1019.3
20260503031530 57 122 0.0 0.0 0.00 0.00 0.00 58 1019.2
20260503030030 57 122 0.0 0.0 0.00 0.00 0.00 56 1019.1
20260503024529 57 122 0.0 0.0 0.00 0.00 0.00 55 1019.0
20260503023028 58 150 0.0 0.0 0.00 0.00 0.00 56 1018.9
20260503021528 58 150 0.0 0.0 0.00 0.00 0.00 55 1018.7
20260503020028 60 150 0.0 0.0 0.00 0.00 0.00 50 1018.6
20260503014538 61 150 0.0 0.0 0.00 0.00 0.00 45 1018.5
20260503013028 63 150 0.0 0.0 0.00 0.00 0.00 42 1018.4
20260503011526 65 150 0.0 0.0 0.00 0.00 0.00 39 1018.3
20260503010025 67 150 0.0 0.0 0.00 0.00 0.00 36 1018.3
20260503004525 68 150 0.0 0.9 0.00 0.00 0.00 34 1018.2
20260503003025 68 147 0.0 0.9 0.00 0.00 0.00 34 1018.2
20260503001525 69 148 0.0 1.7 0.00 0.00 0.00 33 1018.3
20260503000023 69 148 0.0 2.6 0.00 0.00 0.00 33 1018.4
20260502234522 70 150 0.0 2.6 0.00 0.00 0.00 32 1018.4
20260502233022 70 149 0.0 2.6 0.00 0.00 0.00 31 1018.4
20260502231522 71 151 0.0 1.7 0.00 0.00 0.00 30 1018.4
20260502230021 74 172 0.0 3.5 0.00 0.00 0.00 28 1018.4
20260502224520 74 152 0.0 2.6 0.00 0.00 0.00 30 1018.4
20260502223018 73 169 0.0 2.6 0.00 0.00 0.00 29 1018.5
20260502221517 73 131 0.0 3.5 0.00 0.00 0.00 31 1018.5
20260502220019 74 156 0.0 0.9 0.00 0.00 0.00 30 1018.6
20260502214516 73 168 0.0 1.7 0.00 0.00 0.00 31 1018.8
20260502213016 72 172 0.0 4.3 0.00 0.00 0.00 32 1018.9
20260502211521 72 148 0.9 3.5 0.00 0.00 0.00 31 1019.1
20260502210013 73 177 0.0 4.3 0.00 0.00 0.00 31 1019.3
20260502204513 73 150 0.0 3.5 0.00 0.00 0.00 31 1019.5
20260502203010 73 179 0.0 1.7 0.00 0.00 0.00 32 1019.7
20260502201509 73 148 0.0 4.3 0.00 0.00 0.00 33 1019.8